This demonstration page uses our WeatherBlox Daily Observations layout. Learn more.

Left ArrowRight Arrow

Hourly Observations for December 12, 2021

Temp ( °F °C ) Dew Point ( °F °C ) Humidity (%) Winds ( mph kmh ) Pressure ( in mb ) Visibility ( mi km ) Precip ( " mm )
12:51 am 00:51 Clear 45 7.2 26 -3.3 48 48 ESE 10 17 30.11 1020 10 16 0.00 0.00
1:51 am 01:51 Clear 43 6.1 27 -2.8 53 53 ESE 12 19 30.11 1020 10 16 0.00 0.00
2:51 am 02:51 Clear 41 5 27 -2.8 57 57 SSE 12 19 30.11 1020 10 16 0.00 0.00
3:51 am 03:51 Clear 38 3.3 26 -3.3 62 62 SSE 10 17 30.10 1019 10 16 0.00 0.00
4:51 am 04:51 Clear 40 4.4 25 -3.9 55 55 ESE 15 24 30.10 1019 10 16 0.00 0.00
5:51 am 05:51 Clear 40 4.4 24 -4.4 53 53 ESE 12 19 30.12 1020 10 16 0.00 0.00
6:51 am 06:51 Clear 40 4.4 24 -4.4 53 53 ESE 14 22 30.13 1020 10 16 0.00 0.00
7:51 am 07:51 Sunny 41 5 23 -5 49 49 SE 16 26 30.15 1021 10 16 0.00 0.00
8:51 am 08:51 Sunny 44 6.7 23 -5 43 43 ESE 15 24 30.15 1021 10 16 0.00 0.00
9:51 am 09:51 Sunny 49 9.4 24 -4.4 38 38 ESE 14 22 30.15 1021 10 16 0.00 0.00
10:51 am 10:51 Sunny 53 11.7 25 -3.9 34 34 ESE 8 13 30.14 1021 10 16 0.00 0.00
11:51 am 11:51 Sunny 57 13.9 25 -3.9 29 29 SE 9 15 30.09 1019 10 16 0.00 0.00
12:51 pm 12:51 Sunny 59 15 27 -2.8 29 29 S 6 9 30.04 1017 10 16 0.00 0.00
1:51 pm 13:51 Sunny 61 16.1 27 -2.8 27 27 VRB 3 6 30.01 1016 10 16 0.00 0.00
2:51 pm 14:51 Sunny 62 16.7 28 -2.2 28 28 SSW 5 7 29.99 1016 10 16 0.00 0.00
3:51 pm 15:51 Sunny 62 16.7 28 -2.2 28 28 S 6 9 29.98 1015 10 16 0.00 0.00
4:51 pm 16:51 Sunny 60 15.6 28 -2.2 30 30 SW 6 9 29.99 1016 10 16 0.00 0.00
5:51 pm 17:51 Clear 51 10.6 26 -3.3 38 38 NE 3 6 30.02 1017 10 16 0.00 0.00
6:51 pm 18:51 Clear 48 8.9 26 -3.3 42 42 NE 6 9 30.04 1017 10 16 0.00 0.00
7:51 pm 19:51 Clear 45 7.2 25 -3.9 46 46 E 6 9 30.05 1018 10 16 0.00 0.00
8:51 pm 20:51 Clear 47 8.3 28 -2.2 48 48 ESE 8 13 30.05 1018 10 16 0.00 0.00
9:51 pm 21:51 Clear 46 7.8 29 -1.7 51 51 SE 8 13 30.06 1018 10 16 0.00 0.00
10:51 pm 22:51 Clear 45 7.2 29 -1.7 54 54 SSE 9 15 30.07 1018 10 16 0.00 0.00
11:51 pm 23:51 Clear 40 4.4 28 -2.2 63 63 NW 3 6 30.08 1019 10 16 0.00 0.00

Powered by AerisWeather